Location: DARK SKY Beskydy - Park tmavé oblohy, www.darkskybeskydy.cz
(49.4926°N, 18.5016°E)
Time: 04:12:54
(UTC+01:00)

Envisat - Pass Details

Date: 05 December 2022
Orbit: 763 x 765 km, 98.2° (Epoch: 05 February)

Event Time Altitude Azimuth Distance (km) Brightness Sun altitude
Rises 05:43:34 0° 3° (N) 3,245 6.1 -15.7°
Reaches altitude 10° 05:46:31 10° 345° (NNW) 2,314 5.2 -15.2°
Enters shadow 05:48:41 17° 321° (NW) 1,871 4.5 -14.9°
